| time (UTC) | temp F | wind direction | speed knots | gust knots | rain 1hr in | rain 24hr in | rain mn in | humidity % | barometer mb |
| 20260509234904 | 64 | 238 | 14.8 | 18.2 | 0.00 | 0.19 | 0.02 | 81 | 1003.1 |
| 20260509234404 | 63 | 254 | 14.8 | 20.0 | 0.00 | 0.19 | 0.02 | 82 | 1003.3 |
| 20260509231904 | 64 | 249 | 15.6 | 20.9 | 0.00 | 0.19 | 0.02 | 78 | 1003.2 |
| 20260509231407 | 63 | 240 | 12.2 | 22.6 | 0.00 | 0.20 | 0.02 | 79 | 1003.3 |
| 20260509230905 | 63 | 248 | 12.2 | 15.6 | 0.01 | 0.30 | 0.02 | 79 | 1003.3 |
| 20260509225404 | 62 | 267 | 14.8 | 18.2 | 0.01 | 0.30 | 0.02 | 80 | 1003.6 |
| 20260509222406 | 61 | 245 | 10.4 | 11.3 | 0.01 | 0.30 | 0.02 | 88 | 1003.5 |
| 20260509221404 | 59 | 226 | 13.9 | 22.6 | 0.01 | 0.30 | 0.02 | 86 | 1003.6 |
| 20260509220904 | 61 | 237 | 13.9 | 20.0 | 0.00 | 0.29 | 0.01 | 80 | 1003.6 |
| 20260509220404 | 62 | 249 | 10.4 | 13.9 | 0.00 | 0.29 | 0.01 | 82 | 1003.5 |
| 20260509215904 | 62 | 256 | 10.4 | 17.4 | 0.00 | 0.29 | 0.01 | 82 | 1003.5 |
| 20260509215405 | 62 | 259 | 11.3 | 14.8 | 0.00 | 0.29 | 0.01 | 81 | 1003.5 |
| 20260509214404 | 62 | 258 | 7.8 | 13.0 | 0.00 | 0.29 | 0.01 | 82 | 1003.5 |
| 20260509213404 | 62 | 246 | 9.6 | 13.9 | 0.00 | 0.29 | 0.01 | 84 | 1003.5 |
| 20260509212904 | 61 | 258 | 7.8 | 12.2 | 0.00 | 0.29 | 0.01 | 85 | 1003.4 |
| 20260509212404 | 61 | 246 | 9.6 | 13.0 | 0.00 | 0.29 | 0.01 | 85 | 1003.4 |
| 20260509211905 | 61 | 245 | 11.3 | 13.0 | 0.00 | 0.29 | 0.01 | 86 | 1003.4 |
| 20260509210404 | 59 | 262 | 8.7 | 13.9 | 0.00 | 0.29 | 0.01 | 89 | 1003.3 |
| 20260509205904 | 59 | 256 | 7.0 | 11.3 | 0.00 | 0.29 | 0.01 | 90 | 1003.3 |
| 20260509205404 | 59 | 266 | 9.6 | 12.2 | 0.00 | 0.29 | 0.01 | 91 | 1003.2 |
| 20260509204905 | 58 | 280 | 6.1 | 8.7 | 0.00 | 0.30 | 0.01 | 92 | 1003.1 |
| 20260509204404 | 58 | 274 | 7.0 | 8.7 | 0.00 | 0.30 | 0.01 | 92 | 1003.1 |
| 20260509203405 | 57 | 277 | 3.5 | 6.1 | 0.00 | 0.31 | 0.01 | 93 | 1003.1 |
| 20260509202905 | 57 | 284 | 5.2 | 6.1 | 0.00 | 0.31 | 0.01 | 93 | 1003.1 |
| 20260509202404 | 57 | 288 | 4.3 | 5.2 | 0.00 | 0.31 | 0.01 | 93 | 1003.1 |
| 20260509201905 | 56 | 295 | 2.6 | 5.2 | 0.00 | 0.31 | 0.01 | 93 | 1003.1 |
| 20260509201404 | 56 | 266 | 4.3 | 6.1 | 0.00 | 0.31 | 0.01 | 93 | 1003.0 |
| 20260509200904 | 56 | 249 | 5.2 | 6.1 | 0.00 | 0.31 | 0.01 | 94 | 1003.0 |
| 20260509195904 | 56 | 245 | 5.2 | 7.0 | 0.00 | 0.31 | 0.01 | 95 | 1002.9 |
| 20260509194903 | 54 | 255 | 8.7 | 10.4 | 0.00 | 0.31 | 0.01 | 95 | 1002.9 |
| 20260509194404 | 52 | 257 | 6.1 | 13.0 | 0.00 | 0.31 | 0.01 | 95 | 1003.0 |
| 20260509191904 | 51 | 296 | 4.3 | 5.2 | 0.00 | 0.31 | 0.01 | 95 | 1002.5 |
| 20260509190904 | 51 | 283 | 3.5 | 4.3 | 0.00 | 0.31 | 0.01 | 95 | 1002.5 |
| 20260509190404 | 51 | 273 | 2.6 | 5.2 | 0.00 | 0.31 | 0.01 | 95 | 1002.5 |
| 20260509185406 | 52 | 265 | 4.3 | 5.2 | 0.00 | 0.31 | 0.01 | 95 | 1002.6 |
| 20260509184405 | 51 | 268 | 1.7 | 2.6 | 0.00 | 0.31 | 0.01 | 95 | 1002.6 |
| 20260509183905 | 51 | 273 | 1.7 | 2.6 | 0.00 | 0.31 | 0.01 | 95 | 1002.5 |
| 20260509183406 | 51 | 266 | 2.6 | 2.6 | 0.00 | 0.31 | 0.01 | 95 | 1002.5 |
| 20260509182906 | 52 | 264 | 1.7 | 2.6 | 0.00 | 0.31 | 0.01 | 95 | 1002.5 |
| 20260509182406 | 52 | 262 | 2.6 | 4.3 | 0.01 | 0.31 | 0.01 | 95 | 1002.5 |
| 20260509181406 | 51 | 249 | 2.6 | 4.3 | 0.01 | 0.31 | 0.01 | 95 | 1002.4 |
| 20260509180905 | 51 | 269 | 2.6 | 5.2 | 0.01 | 0.31 | 0.01 | 95 | 1002.4 |
| 20260509175907 | 52 | 261 | 1.7 | 4.3 | 0.01 | 0.31 | 0.01 | 95 | 1002.5 |
| 20260509175405 | 51 | 259 | 3.5 | 5.2 | 0.01 | 0.31 | 0.01 | 95 | 1002.5 |
| 20260509174906 | 51 | 268 | 4.3 | 7.8 | 0.01 | 0.31 | 0.01 | 95 | 1002.5 |
| 20260509174405 | 51 | 247 | 5.2 | 7.8 | 0.01 | 0.31 | 0.01 | 95 | 1002.4 |
| 20260509172405 | 48 | 286 | 3.5 | 10.4 | 0.00 | 0.30 | 0.00 | 95 | 1002.5 |
| 20260509171406 | 49 | 319 | 1.7 | 2.6 | 0.00 | 0.30 | 0.00 | 95 | 1002.3 |
| 20260509165906 | 49 | 302 | 2.6 | 4.3 | 0.00 | 0.30 | 0.00 | 95 | 1002.3 |
| 20260509165405 | 48 | 294 | 2.6 | 2.6 | 0.00 | 0.30 | 0.00 | 95 | 1002.2 |
| 20260509164905 | 49 | 294 | 2.6 | 2.6 | 0.00 | 0.30 | 0.00 | 95 | 1002.1 |
| 20260509164405 | 49 | 291 | 1.7 | 2.6 | 0.00 | 0.30 | 0.00 | 95 | 1002.1 |
| 20260509163405 | 48 | 276 | 1.7 | 2.6 | 0.00 | 0.30 | 0.00 | 95 | 1002.0 |
| 20260509162405 | 49 | 277 | 2.6 | 4.3 | 0.00 | 0.30 | 0.00 | 95 | 1002.1 |
| 20260509161905 | 48 | 279 | 2.6 | 4.3 | 0.00 | 0.30 | 0.00 | 94 | 1002.1 |
| 20260509160405 | 49 | 305 | 1.7 | 1.7 | 0.00 | 0.30 | 0.00 | 94 | 1002.1 |
| 20260509154905 | 51 | 306 | 0.9 | 2.6 | 0.00 | 0.30 | 0.00 | 94 | 1002.1 |
| 20260509154406 | 51 | 306 | 1.7 | 2.6 | 0.00 | 0.30 | 0.00 | 95 | 1002.1 |
| 20260509153405 | 51 | 286 | 0.9 | 1.7 | 0.00 | 0.30 | 0.00 | 95 | 1002.3 |
| 20260509152905 | 51 | 286 | 0.0 | 0.0 | 0.00 | 0.30 | 0.00 | 95 | 1002.4 |
| 20260509152405 | 51 | 286 | 0.0 | 1.7 | 0.00 | 0.30 | 0.00 | 95 | 1002.4 |
| 20260509151905 | 51 | 286 | 0.9 | 2.6 | 0.00 | 0.30 | 0.00 | 95 | 1002.4 |
| 20260509151405 | 50 | 287 | 1.7 | 2.6 | 0.00 | 0.30 | 0.00 | 94 | 1002.4 |
| 20260509150906 | 51 | 296 | 2.6 | 2.6 | 0.00 | 0.30 | 0.00 | 94 | 1002.5 |
| 20260509150405 | 51 | 292 | 3.5 | 4.3 | 0.00 | 0.30 | 0.00 | 95 | 1002.5 |
| 20260509145905 | 51 | 289 | 4.3 | 5.2 | 0.00 | 0.30 | 0.00 | 95 | 1002.5 |
| 20260509144905 | 50 | 281 | 2.6 | 4.3 | 0.00 | 0.30 | 0.00 | 94 | 1002.6 |
| 20260509142905 | 50 | 286 | 1.7 | 2.6 | 0.00 | 0.30 | 0.00 | 94 | 1002.7 |
| 20260509142405 | 51 | 282 | 1.7 | 2.6 | 0.00 | 0.30 | 0.00 | 94 | 1002.8 |
| 20260509141905 | 51 | 280 | 1.7 | 2.6 | 0.00 | 0.30 | 0.00 | 94 | 1002.7 |
| 20260509141405 | 51 | 279 | 1.7 | 2.6 | 0.00 | 0.30 | 0.00 | 94 | 1002.8 |
| 20260509140905 | 51 | 279 | 1.7 | 2.6 | 0.00 | 0.30 | 0.00 | 94 | 1002.8 |
| 20260509140405 | 51 | 279 | 1.7 | 1.7 | 0.00 | 0.30 | 0.00 | 94 | 1002.8 |
| 20260509135905 | 51 | 279 | 0.9 | 1.7 | 0.00 | 0.30 | 0.00 | 94 | 1002.9 |
| 20260509134905 | 51 | 279 | 0.9 | 1.7 | 0.00 | 0.31 | 0.00 | 94 | 1002.8 |
| 20260509134406 | 51 | 279 | 1.7 | 1.7 | 0.00 | 0.33 | 0.00 | 94 | 1002.9 |
| 20260509132906 | 52 | 280 | 1.7 | 2.6 | 0.00 | 0.34 | 0.00 | 94 | 1002.9 |
| 20260509132405 | 53 | 279 | 1.7 | 2.6 | 0.00 | 0.34 | 0.00 | 94 | 1002.9 |
| 20260509131905 | 53 | 278 | 1.7 | 2.6 | 0.00 | 0.34 | 0.00 | 94 | 1002.9 |
| 20260509125405 | 54 | 280 | 2.6 | 2.6 | 0.00 | 0.35 | 0.00 | 94 | 1002.8 |
| 20260509124905 | 54 | 280 | 2.6 | 2.6 | 0.00 | 0.35 | 0.00 | 94 | 1002.9 |
| 20260509121905 | 56 | 286 | 1.7 | 2.6 | 0.02 | 0.35 | 0.00 | 94 | 1002.9 |
| 20260509121405 | 57 | 286 | 0.9 | 1.7 | 0.02 | 0.37 | 0.00 | 94 | 1003.0 |
| 20260509114905 | 57 | 290 | 2.6 | 5.2 | 0.03 | 0.52 | 0.49 | 94 | 1003.4 |
| 20260509113906 | 57 | 297 | 5.2 | 6.1 | 0.04 | 0.61 | 0.49 | 94 | 1003.5 |
| 20260509113405 | 57 | 286 | 4.3 | 5.2 | 0.08 | 0.63 | 0.49 | 94 | 1003.4 |
| 20260509111405 | 57 | 293 | 5.2 | 7.8 | 0.07 | 0.61 | 0.47 | 94 | 1003.2 |
| 20260509110905 | 57 | 288 | 5.2 | 7.8 | 0.07 | 0.61 | 0.47 | 94 | 1003.1 |
| 20260509110405 | 57 | 279 | 5.2 | 6.1 | 0.07 | 0.61 | 0.47 | 94 | 1003.0 |
| 20260509105905 | 57 | 284 | 4.3 | 6.1 | 0.07 | 0.62 | 0.47 | 94 | 1003.0 |
| 20260509105405 | 57 | 288 | 4.3 | 4.3 | 0.06 | 0.62 | 0.46 | 94 | 1003.1 |
| 20260509104905 | 57 | 284 | 2.6 | 2.6 | 0.06 | 0.63 | 0.46 | 94 | 1003.2 |
| 20260509103906 | 56 | 329 | 2.6 | 2.6 | 0.05 | 0.62 | 0.45 | 94 | 1003.0 |
| 20260509102405 | 56 | 345 | 2.6 | 4.3 | 0.00 | 0.57 | 0.40 | 94 | 1003.1 |
| 20260509101405 | 56 | 337 | 1.7 | 2.6 | 0.00 | 0.57 | 0.40 | 94 | 1003.3 |
| 20260509100905 | 56 | 337 | 1.7 | 2.6 | 0.00 | 0.57 | 0.40 | 94 | 1003.3 |
| 20260509095905 | 56 | 336 | 1.7 | 2.6 | 0.00 | 0.60 | 0.40 | 94 | 1003.2 |
| 20260509095404 | 56 | 336 | 1.7 | 2.6 | 0.00 | 0.61 | 0.40 | 94 | 1003.2 |
| 20260509094905 | 57 | 328 | 1.7 | 2.6 | 0.00 | 0.61 | 0.40 | 94 | 1003.0 |
| 20260509093405 | 57 | 306 | 7.0 | 10.4 | 0.00 | 0.64 | 0.40 | 94 | 1003.2 |
| 20260509092905 | 57 | 307 | 7.8 | 10.4 | 0.00 | 0.65 | 0.40 | 94 | 1003.3 |
| 20260509092405 | 57 | 307 | 7.8 | 10.4 | 0.00 | 0.66 | 0.40 | 94 | 1003.2 |
| 20260509090904 | 57 | 304 | 7.0 | 8.7 | 0.00 | 0.66 | 0.40 | 94 | 1003.0 |
| 20260509090405 | 57 | 316 | 7.0 | 10.4 | 0.00 | 0.66 | 0.40 | 94 | 1003.0 |
| 20260509084905 | 58 | 308 | 5.2 | 10.4 | 0.00 | 0.67 | 0.40 | 93 | 1002.9 |
| 20260509084405 | 58 | 326 | 8.7 | 10.4 | 0.01 | 0.67 | 0.40 | 93 | 1002.9 |
| 20260509083405 | 58 | 323 | 7.8 | 10.4 | 0.01 | 0.67 | 0.40 | 93 | 1002.9 |
| 20260509082904 | 58 | 321 | 7.0 | 8.7 | 0.02 | 0.67 | 0.40 | 93 | 1002.9 |
| 20260509082405 | 58 | 326 | 6.1 | 7.0 | 0.02 | 0.67 | 0.40 | 93 | 1002.9 |
| 20260509081905 | 58 | 331 | 4.3 | 5.2 | 0.02 | 0.67 | 0.40 | 93 | 1002.8 |
| 20260509081405 | 58 | 330 | 4.3 | 5.2 | 0.02 | 0.67 | 0.40 | 93 | 1002.7 |
| 20260509080404 | 58 | 318 | 4.3 | 5.2 | 0.03 | 0.67 | 0.40 | 93 | 1002.9 |
| 20260509074405 | 58 | 331 | 4.3 | 6.1 | 0.03 | 0.66 | 0.39 | 93 | 1003.0 |
| 20260509072905 | 59 | 333 | 4.3 | 6.1 | 0.04 | 0.65 | 0.39 | 92 | 1003.0 |
| 20260509072405 | 59 | 315 | 5.2 | 7.0 | 0.06 | 0.65 | 0.39 | 92 | 1003.1 |
| 20260509070905 | 59 | 321 | 5.2 | 7.8 | 0.05 | 0.64 | 0.37 | 92 | 1003.1 |
| 20260509070405 | 59 | 315 | 4.3 | 5.2 | 0.05 | 0.64 | 0.37 | 92 | 1002.9 |
| 20260509065905 | 59 | 310 | 5.2 | 5.2 | 0.05 | 0.64 | 0.37 | 92 | 1002.9 |
| 20260509064905 | 59 | 314 | 4.3 | 5.2 | 0.05 | 0.64 | 0.37 | 92 | 1002.9 |
| 20260509063905 | 60 | 315 | 6.1 | 7.8 | 0.04 | 0.63 | 0.36 | 92 | 1002.9 |
| 20260509063405 | 60 | 305 | 4.3 | 7.0 | 0.04 | 0.63 | 0.36 | 91 | 1002.9 |
| 20260509062905 | 59 | 291 | 5.2 | 7.8 | 0.02 | 0.61 | 0.35 | 91 | 1002.9 |
| 20260509061905 | 59 | 283 | 4.3 | 6.1 | 0.00 | 0.59 | 0.32 | 90 | 1002.9 |
| 20260509061405 | 59 | 304 | 2.6 | 4.3 | 0.00 | 0.59 | 0.32 | 90 | 1002.7 |
| 20260509060905 | 59 | 317 | 3.5 | 4.3 | 0.00 | 0.59 | 0.32 | 89 | 1002.7 |
| 20260509055905 | 59 | 324 | 4.3 | 5.2 | 0.00 | 0.59 | 0.32 | 89 | 1002.6 |
| 20260509055405 | 59 | 333 | 4.3 | 5.2 | 0.00 | 0.59 | 0.32 | 88 | 1002.5 |
| 20260509054905 | 59 | 328 | 4.3 | 6.1 | 0.00 | 0.59 | 0.32 | 88 | 1002.5 |
| 20260509054404 | 59 | 333 | 5.2 | 6.1 | 0.00 | 0.59 | 0.32 | 87 | 1002.4 |
| 20260509053905 | 59 | 326 | 3.5 | 4.3 | 0.00 | 0.59 | 0.32 | 87 | 1002.4 |
| 20260509053405 | 59 | 323 | 4.3 | 4.3 | 0.01 | 0.59 | 0.32 | 86 | 1002.5 |
| 20260509052905 | 60 | 315 | 4.3 | 5.2 | 0.01 | 0.59 | 0.32 | 86 | 1002.6 |
| 20260509051905 | 60 | 315 | 2.6 | 2.6 | 0.01 | 0.59 | 0.32 | 85 | 1002.4 |
| 20260509050404 | 61 | 280 | 2.6 | 6.1 | 0.01 | 0.59 | 0.32 | 84 | 1002.5 |
| 20260509045905 | 61 | 296 | 4.3 | 8.7 | 0.01 | 0.59 | 0.32 | 84 | 1002.6 |
| 20260509045405 | 61 | 294 | 7.0 | 10.4 | 0.01 | 0.59 | 0.32 | 83 | 1002.6 |
| 20260509044904 | 62 | 300 | 8.7 | 11.3 | 0.01 | 0.59 | 0.32 | 83 | 1002.6 |
| 20260509044405 | 62 | 287 | 8.7 | 11.3 | 0.01 | 0.59 | 0.32 | 81 | 1002.8 |
| 20260509042905 | 63 | 284 | 10.4 | 14.8 | 0.00 | 0.58 | 0.31 | 82 | 1003.1 |
| 20260509042405 | 64 | 274 | 6.1 | 7.8 | 0.00 | 0.58 | 0.31 | 82 | 1003.0 |
| 20260509041904 | 64 | 279 | 6.1 | 10.4 | 0.00 | 0.58 | 0.31 | 81 | 1003.0 |
| 20260509035906 | 64 | 280 | 10.4 | 14.8 | 0.00 | 0.58 | 0.31 | 79 | 1003.2 |
| 20260509033905 | 65 | 289 | 10.4 | 14.8 | 0.00 | 0.58 | 0.31 | 76 | 1002.9 |
| 20260509032405 | 67 | 264 | 8.7 | 13.0 | 0.00 | 0.58 | 0.31 | 72 | 1002.9 |
| 20260509031905 | 67 | 276 | 7.8 | 11.3 | 0.00 | 0.58 | 0.31 | 74 | 1003.0 |
| 20260509031404 | 66 | 273 | 10.4 | 13.0 | 0.00 | 0.58 | 0.31 | 74 | 1003.0 |
| 20260509025404 | 66 | 279 | 12.2 | 17.4 | 0.00 | 0.58 | 0.31 | 72 | 1003.0 |
| 20260509024905 | 67 | 287 | 15.6 | 18.2 | 0.00 | 0.58 | 0.31 | 74 | 1003.0 |
| 20260509024405 | 67 | 288 | 12.2 | 18.2 | 0.00 | 0.58 | 0.31 | 74 | 1003.0 |
| 20260509023405 | 66 | 288 | 12.2 | 17.4 | 0.00 | 0.58 | 0.31 | 75 | 1003.0 |
| 20260509022905 | 66 | 293 | 14.8 | 17.4 | 0.00 | 0.58 | 0.31 | 73 | 1002.9 |
| 20260509021404 | 67 | 272 | 10.4 | 14.8 | 0.00 | 0.58 | 0.31 | 75 | 1002.9 |
| 20260509020405 | 68 | 285 | 10.4 | 13.0 | 0.00 | 0.58 | 0.31 | 75 | 1003.1 |
| 20260509015405 | 68 | 279 | 10.4 | 13.9 | 0.00 | 0.58 | 0.31 | 76 | 1003.1 |
| 20260509014905 | 68 | 299 | 9.6 | 13.9 | 0.00 | 0.58 | 0.31 | 76 | 1003.0 |
| 20260509014405 | 68 | 288 | 13.9 | 17.4 | 0.00 | 0.58 | 0.31 | 75 | 1003.0 |
| 20260509013905 | 68 | 289 | 13.9 | 17.4 | 0.00 | 0.58 | 0.31 | 75 | 1003.0 |
| 20260509013405 | 68 | 300 | 11.3 | 15.6 | 0.00 | 0.58 | 0.31 | 75 | 1003.0 |
| 20260509012405 | 67 | 291 | 11.3 | 17.4 | 0.00 | 0.58 | 0.31 | 77 | 1003.2 |
| 20260509010905 | 66 | 280 | 13.0 | 17.4 | 0.00 | 0.58 | 0.31 | 76 | 1003.4 |
| 20260509010405 | 66 | 293 | 15.6 | 18.2 | 0.00 | 0.58 | 0.31 | 77 | 1003.5 |
| 20260509004405 | 66 | 293 | 8.7 | 13.0 | 0.00 | 0.58 | 0.31 | 79 | 1003.8 |
| 20260509003405 | 67 | 291 | 12.2 | 17.4 | 0.00 | 0.58 | 0.31 | 77 | 1004.0 |
| 20260509002904 | 67 | 300 | 12.2 | 20.0 | 0.00 | 0.58 | 0.31 | 77 | 1004.1 |
| 20260509001405 | 67 | 288 | 15.6 | 20.9 | 0.01 | 0.58 | 0.31 | 79 | 1004.5 |